Regional Weather Roundup
Issued by NWS Charleston, WV

Home | Current Version | Previous Version | Text Only | Print | Product List | Glossary Off
Versions: 1 2 3 4 5 6 7 8 9 10 11 12 13 14 15 16 17 18 19 20 21 22 23 24 25 26 27 28 29 30 31 32 33 34 35 36 37 38 39 40 41 42 43 44 45 46 47 48 49 50

000
ASUS41 KRLX 211410
RWRRLX
West Virginia Regional Weather Roundup
National Weather Service Charleston WV
900 AM EST SUN DEC 21 2014

Note: "fair" indicates few or no clouds below 12,000 feet with no
significant weather and/or obstructions to visibility.

WVZ003-211500-
Northern Panhandle of West Virginia

CITY           SKY/WX    TMP DP  RH WIND       PRES   REMARKS
WHEELING       CLOUDY    29  22  75 CALM      30.30S
$$

WVZ009-211500-
Northwest West Virginia

CITY           SKY/WX    TMP DP  RH WIND       PRES   REMARKS
PARKERSBURG    CLOUDY    32  24  72 CALM      30.35R
$$

WVZ006-211500-
Western West Virginia

CITY           SKY/WX    TMP DP  RH WIND       PRES   REMARKS
HUNTINGTON     CLOUDY    31  27  85 NE5       30.31S
$$

WVZ015-211500-
West Central West Virginia

CITY           SKY/WX    TMP DP  RH WIND       PRES   REMARKS
CHARLESTON     MOSUNNY   29  27  92 CALM      30.31R
$$

WVZ022-031-211500-
North Central West Virginia

CITY           SKY/WX    TMP DP  RH WIND       PRES   REMARKS
CLARKSBURG     CLOUDY    30  25  81 CALM      30.30S
MORGANTOWN     CLOUDY    30  21  69 CALM      30.31S
$$

WVZ025-035-042-045-211500-
Southern West Virginia

CITY           SKY/WX    TMP DP  RH WIND       PRES   REMARKS
BECKLEY        SUNNY     31  26  82 CALM      30.23R
LOGAN            N/A     30  27  86 CALM      30.26S FOG
BLUEFIELD      MOSUNNY   33  27  78 CALM      30.22R
LEWISBURG      MOSUNNY   34  31  88 CALM      30.23S
$$

WVZ047-211500-
Northern Mountains of West Virginia

CITY           SKY/WX    TMP DP  RH WIND       PRES   REMARKS
ELKINS         CLOUDY    31  27  85 CALM      30.26S
$$

WVZ052-211500-
Eastern Panhandle of West Virginia

CITY           SKY/WX    TMP DP  RH WIND       PRES   REMARKS
MARTINSBURG    CLOUDY    32  21  64 CALM      30.34R
PETERSBURG     CLOUDY    33  26  75 CALM      30.32S
$$


USA.gov is the U.S. government's official web portal to all federal, state and local government web resources and services.